Flag for China Weather past 2 weeks in Guangzhou, China

Now
86 °F

Scattered clouds.


Feels Like: 91 °F
Forecast: 72 / 89 °F
Wind: 8 mph from South

Location: Canton Airport


UV Index: 7 (High)

Visibility: 6 mi


Pressure: 29.80 "Hg

Humidity: 59%

Dew point: 70 °F

Location of GuangzhouLocation

Historic Weather in Guangzhou

°F

Guangzhou temperature yesterday

Maximum temperature yesterday: 84 °F (at 12:30 PM)
Minimum temperature yesterday: 73 °F (at 2:00 AM)
Average temperature yesterday: 79 °F

Past Weeks' High & Low Weather Summary

 TemperatureHumidityPressure
High91 °F (Apr 13, 2:00 PM)100% (Apr 7, 4:30 AM)30.07 "Hg (Apr 7, 4:30 AM)
Low63 °F (Apr 5, 6:00 AM)48% (Apr 4, 3:00 PM)29.80 "Hg (Apr 12, 3:00 PM)
Average75 °F77%29.94 "Hg
* Reported Apr 3 4:00 PM — Apr 18 4:30 PM, Guangzhou, Weather by CustomWeather, © 2014

Note: Actual official high and low records may vary slightly from our data, if they occured in-between our weather recording intervals... More about our weather records

Advertising

Historic Weather Conditions — Data for Previous 24 hours

 ConditionsComfort  
Time TempWeatherWind HumidityBarometerVisibility
4:30 PM
Apr 18
86 °FScattered clouds.10 mph59%29.80 "Hg5 mi
4:00 PM86 °FScattered clouds.8 mph59%29.80 "Hg5 mi
3:30 PM88 °FScattered clouds.8 mph55%29.80 "Hg5 mi
3:00 PM86 °FScattered clouds.8 mph59%29.83 "Hg4 mi
2:30 PM86 °FPartly sunny.8 mph59%29.83 "Hg4 mi
2:00 PM86 °FPartly sunny.3 mph62%29.83 "Hg4 mi
1:30 PM86 °FPartly sunny.6 mph59%29.86 "Hg4 mi
1:00 PM84 °FPartly sunny.6 mph62%29.86 "Hg3 mi
12:30 PM84 °FPartly sunny.3 mph62%29.89 "Hg3 mi
12:00 PM82 °FPartly sunny.6 mph66%29.89 "Hg3 mi
11:30 AM82 °FPartly sunny.3 mph66%29.92 "Hg2 mi
11:00 AM79 °FFog.3 mph79%29.92 "Hg3 mi
10:30 AM81 °FFog.3 mph74%29.92 "Hg3 mi
10:00 AM81 °FFog.1 mph74%29.92 "Hg3 mi
9:30 AM79 °FFog.1 mph74%29.92 "Hg3 mi
9:00 AM77 °FFog.1 mph79%29.92 "Hg2 mi
8:30 AM75 °FFog.1 mph83%29.92 "Hg2 mi
8:00 AM75 °FFog.1 mph83%29.92 "Hg2 mi
7:30 AM73 °FFog.1 mph89%29.89 "Hg2 mi
7:00 AM73 °FFog.1 mph89%29.89 "Hg2 mi
6:30 AM73 °FFog.1 mph89%29.89 "Hg2 mi
6:00 AM72 °FFog.1 mph94%29.86 "Hg2 mi
5:30 AM72 °FPassing clouds.1 mph94%29.86 "Hg4 mi
5:00 AM73 °FPassing clouds.1 mph89%29.86 "Hg4 mi
4:30 AM72 °FClear.1 mph94%29.86 "Hg4 mi
4:00 AM72 °FClear.1 mph94%29.86 "Hg4 mi
3:30 AM73 °FClear.No wind89%29.86 "Hg4 mi
3:00 AM73 °FClear.No wind89%29.86 "Hg4 mi
2:30 AM73 °FClear.No wind89%29.86 "Hg4 mi
2:00 AM75 °FClear.1 mph83%29.86 "Hg4 mi
1:00 AM75 °FPassing clouds.3 mph83%29.89 "Hg5 mi
12:30 AM75 °FPassing clouds.1 mph83%29.89 "Hg5 mi
12:00 AM75 °FPassing clouds.1 mph83%29.89 "Hg5 mi
11:30 PM
Apr 17
77 °FPassing clouds.3 mph79%29.89 "Hg5 mi
11:00 PM77 °FPassing clouds.3 mph79%29.89 "Hg5 mi
10:30 PM77 °FPassing clouds.6 mph79%29.89 "Hg5 mi
10:00 PM79 °FPassing clouds.6 mph74%29.89 "Hg5 mi
9:30 PM79 °FPassing clouds.6 mph74%29.86 "Hg5 mi
9:00 PM79 °FPassing clouds.8 mph74%29.86 "Hg5 mi
8:30 PM81 °FPassing clouds.6 mph70%29.86 "Hg5 mi
8:00 PM81 °FPassing clouds.8 mph70%29.83 "Hg5 mi
7:30 PM81 °FPassing clouds.6 mph70%29.83 "Hg5 mi
7:00 PM81 °FPassing clouds.8 mph70%29.83 "Hg4 mi
6:30 PM82 °FPartly sunny.6 mph66%29.80 "Hg4 mi
6:00 PM82 °FPartly sunny.6 mph66%29.80 "Hg4 mi
5:30 PM84 °FPartly sunny.6 mph62%29.80 "Hg4 mi
5:00 PM84 °FPartly sunny.6 mph58%29.80 "Hg4 mi
Weather by CustomWeather, © 2014

See weather overview